START_TIME,STEP,MOV.,H8,t_acc.,H43,t_acc.,M25,t_acc.,H9,t_acc.
1979-07-05 06:00:30.260 ,0,1,0.,12.0,0.,12.0,0.,12.0,0.,12.0
1979-07-05 06:00:42.260 ,0,1,0.,12.0,0.,12.0,0.,12.0,0.,12.0
1979-07-05 06:00:54.260 ,4,1,0.,12.0,0.,12.0,0.,12.0,0.,12.0
1979-07-05 06:01:06.260 ,4,1,0.,12.0,0.,12.0,0.,12.0,0.,12.0
1979-07-05 06:01:18.260 ,7,1,0.,12.0,0.,12.0,0.,12.0,0.,12.0
1979-07-05 06:01:30.260 ,7,1,0.,12.0,0.,12.0,0.,12.0,0.,12.0
1979-07-05 06:01:42.250 ,3,1,0.,12.0,0.,12.0,0.,12.0,0.,12.0
1979-07-05 06:01:54.260 ,3,1,0.,12.0,0.,12.0,0.,12.0,0.,12.0
1979-07-05 06:02:06.250 ,0,1,0.,12.0,0.,12.0,0.,12.0,0.,12.0
1979-07-05 06:02:18.260 ,0,1,0.,12.0,0.,12.0,0.,12.0,0.,12.0
1979-07-05 06:02:30.260 ,4,1,0.,12.0,0.,12.0,0.,12.0,0.,12.0
1979-07-05 06:02:42.260 ,4,1,0.,12.0,0.,12.0,0.,12.0,0.,12.0
1979-07-05 06:02:54.260 ,7,1,0.,12.0,0.,12.0,0.,12.0,0.,12.0
1979-07-05 06:03:06.260 ,7,1,0.,12.0,0.,12.0,0.,12.0,0.,12.0
1979-07-05 06:03:18.260 ,3,1,0.,12.0,0.,12.0,0.,12.0,0.,12.0
1979-07-05 06:03:30.260 ,3,1,0.,12.0,0.,12.0,0.,12.0,0.,12.0
1979-07-05 06:03:42.260 ,0,1,0.,12.0,0.,12.0,0.,12.0,0.,12.0
1979-07-05 06:03:54.260 ,0,1,0.,12.0,0.,12.0,0.,12.0,0.,12.0
1979-07-05 06:04:06.260 ,4,1,0.,12.0,0.,12.0,0.,12.0,0.,12.0
1979-07-05 06:04:18.260 ,4,1,0.,12.0,0.,12.0,0.,12.0,0.,12.0
1979-07-05 06:04:30.260 ,7,1,0.,12.0,0.,12.0,0.,12.0,0.,12.0
1979-07-05 06:04:42.260 ,7,1,0.,12.0,0.,12.0,0.,12.0,0.,12.0
1979-07-05 06:04:54.260 ,3,1,0.,12.0,0.,12.0,0.,12.0,0.,12.0
1979-07-05 06:05:06.260 ,3,1,0.,12.0,0.,12.0,0.,12.0,0.,12.0
1979-07-05 06:05:18.260 ,0,1,0.,12.0,0.,12.0,0.,12.0,0.,12.0
1979-07-05 06:05:30.260 ,0,1,0.,12.0,0.,12.0,0.,12.0,0.,12.0
1979-07-05 06:05:42.260 ,0,0,0.,12.0,0.,12.0,0.,12.0,0.,12.0
1979-07-05 06:05:54.260 ,0,0,0.,12.0,0.,12.0,0.,12.0,0.,12.0
1979-07-05 06:06:06.260 ,0,0,0.,12.0,0.,12.0,0.,12.0,0.,12.0
1979-07-05 06:06:18.260 ,0,0,0.,12.0,0.,12.0,0.,12.0,0.,12.0
1979-07-05 06:06:30.250 ,5,0,0.,12.0,0.,12.0,0.,12.0,0.,12.0
1979-07-05 06:06:42.250 ,5,0,0.,12.0,0.,12.0,0.,12.0,0.,12.0
1979-07-05 06:06:54.250 ,5,0,0.,12.0,0.,12.0,0.,12.0,0.,12.0
1979-07-05 06:07:06.250 ,5,0,0.,12.0,0.,12.0,0.,12.0,0.,12.0
1979-07-05 06:07:18.250 ,4,0,0.,12.0,0.,12.0,0.,12.0,0.,12.0
1979-07-05 06:07:30.250 ,4,0,0.,12.0,0.,12.0,0.,12.0,0.,12.0
1979-07-05 06:07:42.250 ,4,0,0.,12.0,0.,12.0,0.,12.0,0.,12.0
1979-07-05 06:07:54.250 ,4,0,0.,12.0,0.,12.0,0.,12.0,0.,12.0
1979-07-05 06:08:06.250 ,3,0,0.,12.0,0.,12.0,0.,12.0,0.,12.0
1979-07-05 06:08:18.250 ,3,0,0.,12.0,0.,12.0,0.,12.0,0.,12.0
1979-07-05 06:08:30.250 ,3,0,0.,12.0,0.,12.0,0.,12.0,0.,12.0
1979-07-05 06:08:42.250 ,3,0,0.,12.0,0.,12.0,0.,12.0,0.,12.0
1979-07-05 06:08:54.250 ,2,0,0.,12.0,0.,12.0,0.,12.0,0.,12.0
1979-07-05 06:09:06.250 ,2,0,0.,12.0,0.,12.0,0.,12.0,0.,12.0
1979-07-05 06:09:18.250 ,2,0,0.,12.0,0.,12.0,0.,12.0,0.,12.0
1979-07-05 06:09:30.250 ,2,0,0.,12.0,0.,12.0,0.,12.0,0.,12.0
1979-07-05 06:09:42.250 ,1,0,0.,12.0,0.,12.0,0.,12.0,0.,12.0
1979-07-05 06:09:54.250 ,1,0,0.,12.0,0.,12.0,0.,12.0,0.,12.0
1979-07-05 06:10:06.250 ,1,0,0.,12.0,0.,12.0,0.,12.0,0.,12.0
1979-07-05 06:10:18.250 ,1,0,0.,12.0,0.,12.0,0.,12.0,0.,12.0
1979-07-05 06:10:30.250 ,0,0,0.,12.0,0.,12.0,0.,12.0,0.,12.0
1979-07-05 06:10:42.250 ,0,0,0.,12.0,0.,12.0,1.,12.0,0.,12.0
1979-07-05 06:10:54.250 ,0,0,0.,12.0,0.,12.0,0.,12.0,0.,12.0
1979-07-05 06:11:06.250 ,0,0,0.,12.0,0.,12.0,0.,12.0,0.,12.0
1979-07-05 06:11:18.250 ,0,0,0.,12.0,0.,12.0,0.,12.0,0.,12.0
1979-07-05 06:11:30.250 ,0,0,0.,12.0,0.,12.0,0.,12.0,0.,12.0
1979-07-05 06:11:42.250 ,0,0,0.,12.0,0.,12.0,0.,12.0,0.,12.0
1979-07-05 06:11:54.250 ,0,0,0.,12.0,0.,12.0,0.,12.0,0.,12.0
1979-07-05 06:12:06.250 ,1,0,0.,12.0,0.,12.0,0.,12.0,0.,12.0
1979-07-05 06:12:18.250 ,1,0,0.,12.0,0.,12.0,0.,12.0,0.,12.0
1979-07-05 06:12:30.250 ,1,0,0.,12.0,0.,12.0,0.,12.0,0.,12.0
1979-07-05 06:12:42.250 ,1,0,0.,12.0,0.,12.0,0.,12.0,0.,12.0
1979-07-05 06:12:54.250 ,2,0,0.,12.0,0.,12.0,0.,12.0,0.,12.0
1979-07-05 06:13:06.250 ,2,0,0.,12.0,0.,12.0,0.,12.0,0.,12.0
1979-07-05 06:13:18.250 ,0,0,0.,12.0,0.,12.0,0.,12.0,0.,12.0
1979-07-05 06:13:30.250 ,0,0,0.,12.0,0.,12.0,0.,12.0,0.,12.0
1979-07-05 06:13:47.050 ,0,0,0.,12.0,0.,12.0,0.,12.0,0.,12.0
1979-07-05 06:13:59.050 ,0,0,0.,12.0,0.,12.0,0.,12.0,0.,12.0
1979-07-05 06:14:06.250 ,0,0,0.,12.0,0.,12.0,0.,12.0,0.,12.0
1979-07-05 06:14:18.250 ,0,0,0.,12.0,0.,12.0,0.,12.0,0.,12.0
1979-07-05 06:14:30.250 ,4,0,0.,12.0,0.,12.0,0.,12.0,0.,12.0
1979-07-05 06:14:42.250 ,4,0,0.,12.0,0.,12.0,0.,12.0,0.,12.0
1979-07-05 06:14:54.250 ,4,0,0.,12.0,0.,12.0,0.,12.0,0.,12.0
1979-07-05 06:15:06.250 ,4,0,0.,12.0,0.,12.0,0.,12.0,0.,12.0
1979-07-05 06:15:18.250 ,5,0,0.,12.0,0.,12.0,0.,12.0,0.,12.0
1979-07-05 06:15:30.250 ,5,0,0.,12.0,0.,12.0,0.,12.0,0.,12.0
1979-07-05 06:15:42.250 ,5,0,0.,12.0,0.,12.0,0.,12.0,0.,12.0
1979-07-05 06:15:54.250 ,5,0,0.,12.0,0.,12.0,0.,12.0,0.,12.0
1979-07-05 06:16:06.250 ,6,0,0.,12.0,0.,12.0,0.,12.0,0.,12.0
1979-07-05 06:16:18.250 ,6,0,0.,12.0,0.,12.0,0.,12.0,0.,12.0
1979-07-05 06:16:30.250 ,6,0,0.,12.0,0.,12.0,0.,12.0,0.,12.0
1979-07-05 06:16:42.250 ,6,0,0.,12.0,0.,12.0,0.,12.0,0.,12.0
1979-07-05 06:16:54.250 ,7,0,0.,12.0,0.,12.0,0.,12.0,0.,12.0
1979-07-05 06:17:06.250 ,7,0,0.,12.0,0.,12.0,0.,12.0,0.,12.0
1979-07-05 06:17:18.250 ,7,0,0.,12.0,0.,12.0,0.,12.0,0.,12.0
1979-07-05 06:17:30.250 ,7,0,0.,12.0,0.,12.0,0.,12.0,0.,12.0
1979-07-05 06:17:42.250 ,7,0,0.,12.0,0.,12.0,0.,12.0,0.,12.0
1979-07-05 06:17:54.250 ,7,0,0.,12.0,0.,12.0,0.,12.0,0.,12.0
1979-07-05 06:18:06.250 ,7,0,0.,12.0,0.,12.0,0.,12.0,0.,12.0
1979-07-05 06:18:18.250 ,7,0,0.,12.0,0.,12.0,0.,12.0,0.,12.0
1979-07-05 06:18:30.250 ,6,0,0.,12.0,0.,12.0,0.,12.0,0.,12.0
1979-07-05 06:18:42.250 ,6,0,0.,12.0,0.,12.0,0.,12.0,0.,12.0
1979-07-05 06:18:54.250 ,6,0,0.,12.0,0.,12.0,0.,12.0,0.,12.0
1979-07-05 06:19:06.250 ,6,0,0.,12.0,0.,12.0,0.,12.0,0.,12.0
1979-07-05 06:19:18.250 ,5,0,0.,12.0,0.,12.0,0.,12.0,0.,12.0
1979-07-05 06:19:30.250 ,5,0,0.,12.0,0.,12.0,0.,12.0,0.,12.0
1979-07-05 06:19:42.250 ,5,0,0.,12.0,0.,12.0,0.,12.0,0.,12.0
1979-07-05 06:19:54.250 ,5,0,0.,12.0,0.,12.0,0.,12.0,0.,12.0
1979-07-05 06:20:06.250 ,4,0,0.,12.0,0.,12.0,0.,12.0,0.,12.0
1979-07-05 06:20:18.250 ,4,0,0.,12.0,0.,12.0,0.,12.0,0.,12.0
1979-07-05 06:20:30.250 ,4,0,0.,12.0,0.,12.0,0.,12.0,0.,12.0
1979-07-05 06:20:42.250 ,4,0,0.,12.0,0.,12.0,0.,12.0,0.,12.0
1979-07-05 06:20:54.250 ,3,0,0.,12.0,0.,12.0,0.,12.0,0.,12.0
1979-07-05 06:21:06.250 ,3,0,0.,12.0,0.,12.0,0.,12.0,0.,12.0
1979-07-05 06:21:18.250 ,3,0,0.,12.0,0.,12.0,0.,12.0,0.,12.0
1979-07-05 06:21:30.250 ,3,0,0.,12.0,0.,12.0,0.,12.0,0.,12.0
1979-07-05 06:21:42.250 ,2,0,0.,12.0,0.,12.0,0.,12.0,0.,12.0
1979-07-05 06:21:54.250 ,2,0,0.,12.0,0.,12.0,0.,12.0,0.,12.0
1979-07-05 06:22:06.250 ,2,0,0.,12.0,0.,12.0,0.,12.0,0.,12.0
1979-07-05 06:22:18.250 ,2,0,0.,12.0,0.,12.0,0.,12.0,0.,12.0
1979-07-05 06:22:30.250 ,1,0,0.,12.0,0.,12.0,0.,12.0,0.,12.0
1979-07-05 06:22:42.250 ,1,0,0.,12.0,0.,12.0,0.,12.0,0.,12.0
1979-07-05 06:22:54.250 ,1,0,0.,12.0,0.,12.0,0.,12.0,0.,12.0
1979-07-05 06:23:06.250 ,1,0,0.,12.0,0.,12.0,0.,12.0,0.,12.0
1979-07-05 06:23:18.250 ,0,0,0.,12.0,0.,12.0,0.,12.0,0.,12.0
1979-07-05 06:23:30.250 ,0,0,0.,12.0,0.,12.0,0.,12.0,0.,12.0
1979-07-05 06:23:42.250 ,0,0,0.,12.0,0.,12.0,0.,12.0,0.,12.0
1979-07-05 06:23:54.250 ,0,0,0.,12.0,0.,12.0,0.,12.0,0.,12.0
1979-07-05 06:24:06.250 ,0,0,0.,12.0,0.,12.0,0.,12.0,0.,12.0
1979-07-05 06:24:18.250 ,0,0,0.,12.0,0.,12.0,0.,12.0,0.,12.0
1979-07-05 06:24:30.250 ,0,0,0.,12.0,0.,12.0,0.,12.0,0.,12.0
1979-07-05 06:24:42.250 ,0,0,0.,12.0,0.,12.0,0.,12.0,0.,12.0
1979-07-05 06:24:54.250 ,1,0,0.,12.0,0.,12.0,0.,12.0,0.,12.0
1979-07-05 06:25:06.250 ,1,0,0.,12.0,0.,12.0,0.,12.0,0.,12.0
1979-07-05 06:25:18.250 ,1,0,0.,12.0,0.,12.0,0.,12.0,0.,12.0
1979-07-05 06:25:30.250 ,1,0,0.,12.0,0.,12.0,0.,12.0,0.,12.0
1979-07-05 06:25:42.250 ,2,0,0.,12.0,0.,12.0,0.,12.0,0.,12.0
1979-07-05 06:25:54.250 ,2,0,0.,12.0,0.,12.0,0.,12.0,0.,12.0
1979-07-05 06:26:06.250 ,2,0,0.,12.0,0.,12.0,0.,12.0,0.,12.0
1979-07-05 06:26:18.250 ,2,0,1.,12.0,0.,12.0,0.,12.0,0.,12.0
1979-07-05 06:26:30.250 ,3,0,0.,12.0,0.,12.0,0.,12.0,0.,12.0
1979-07-05 06:26:42.250 ,3,0,0.,12.0,0.,12.0,0.,12.0,0.,12.0
1979-07-05 06:26:54.250 ,3,0,0.,12.0,0.,12.0,0.,12.0,0.,12.0
1979-07-05 06:27:06.250 ,3,0,0.,12.0,0.,12.0,0.,12.0,0.,12.0
1979-07-05 06:27:18.250 ,4,0,0.,12.0,0.,12.0,0.,12.0,0.,12.0
1979-07-05 06:27:30.250 ,4,0,0.,12.0,0.,12.0,0.,12.0,0.,12.0
1979-07-05 06:27:42.250 ,4,0,0.,12.0,0.,12.0,0.,12.0,0.,12.0
1979-07-05 06:27:54.250 ,4,0,0.,12.0,0.,12.0,0.,12.0,0.,12.0
1979-07-05 06:28:06.250 ,5,0,0.,12.0,0.,12.0,0.,12.0,0.,12.0
1979-07-05 06:28:18.250 ,5,0,0.,12.0,0.,12.0,0.,12.0,0.,12.0
1979-07-05 06:28:30.250 ,5,0,0.,12.0,0.,12.0,0.,12.0,0.,12.0
1979-07-05 06:28:42.250 ,5,0,0.,12.0,0.,12.0,0.,12.0,0.,12.0
1979-07-05 06:28:54.250 ,6,0,0.,12.0,0.,12.0,0.,12.0,0.,12.0
1979-07-05 06:29:06.250 ,6,0,0.,12.0,0.,12.0,0.,12.0,0.,12.0
1979-07-05 06:29:18.250 ,6,0,0.,12.0,0.,12.0,0.,12.0,0.,12.0
1979-07-05 06:29:30.250 ,6,0,0.,12.0,0.,12.0,0.,12.0,0.,12.0
1979-07-05 06:29:42.250 ,7,0,0.,12.0,0.,12.0,0.,12.0,0.,12.0
1979-07-05 06:29:54.250 ,7,0,0.,12.0,0.,12.0,0.,12.0,0.,12.0
1979-07-05 06:30:06.250 ,7,0,0.,12.0,0.,12.0,0.,12.0,0.,12.0
1979-07-05 06:30:18.250 ,7,0,0.,12.0,0.,12.0,0.,12.0,0.,12.0
1979-07-05 06:30:30.250 ,7,0,0.,12.0,0.,12.0,0.,12.0,0.,12.0
1979-07-05 06:30:42.250 ,7,0,0.,12.0,0.,12.0,0.,12.0,0.,12.0
1979-07-05 06:30:54.250 ,7,0,0.,12.0,0.,12.0,0.,12.0,0.,12.0
1979-07-05 06:31:06.250 ,7,0,0.,12.0,0.,12.0,0.,12.0,0.,12.0
1979-07-05 06:31:18.250 ,6,0,0.,12.0,0.,12.0,0.,12.0,0.,12.0
1979-07-05 06:31:30.250 ,6,0,0.,12.0,0.,12.0,0.,12.0,0.,12.0
1979-07-05 06:31:42.250 ,6,0,0.,12.0,0.,12.0,0.,12.0,0.,12.0
1979-07-05 06:31:54.250 ,6,0,0.,12.0,0.,12.0,0.,12.0,0.,12.0
1979-07-05 06:32:06.250 ,5,0,0.,12.0,0.,12.0,0.,12.0,0.,12.0
1979-07-05 06:32:18.250 ,5,0,0.,12.0,0.,12.0,0.,12.0,0.,12.0
1979-07-05 06:32:30.250 ,5,0,0.,12.0,0.,12.0,0.,12.0,0.,12.0
1979-07-05 06:32:42.250 ,5,0,0.,12.0,0.,12.0,0.,12.0,0.,12.0
1979-07-05 06:32:54.250 ,4,0,0.,12.0,0.,12.0,0.,12.0,0.,12.0
1979-07-05 06:33:06.250 ,4,0,0.,12.0,0.,12.0,0.,12.0,0.,12.0
1979-07-05 06:33:18.250 ,4,0,0.,12.0,0.,12.0,0.,12.0,0.,12.0
1979-07-05 06:33:30.250 ,4,0,0.,12.0,0.,12.0,0.,12.0,0.,12.0
1979-07-05 06:33:42.250 ,3,0,0.,12.0,0.,12.0,0.,12.0,0.,12.0
1979-07-05 06:33:54.250 ,3,0,0.,12.0,0.,12.0,0.,12.0,0.,12.0
1979-07-05 06:34:06.250 ,3,0,0.,12.0,0.,12.0,0.,12.0,0.,12.0
1979-07-05 06:34:18.250 ,3,0,0.,12.0,0.,12.0,0.,12.0,0.,12.0
1979-07-05 06:34:30.250 ,2,0,0.,12.0,0.,12.0,0.,12.0,0.,12.0
1979-07-05 06:34:42.250 ,2,0,0.,12.0,0.,12.0,0.,12.0,0.,12.0
1979-07-05 06:34:54.250 ,2,0,0.,12.0,0.,12.0,0.,12.0,0.,12.0
1979-07-05 06:35:06.250 ,2,0,0.,12.0,0.,12.0,0.,12.0,0.,12.0
1979-07-05 06:35:18.250 ,1,0,0.,12.0,0.,12.0,0.,12.0,0.,12.0
1979-07-05 06:35:30.250 ,1,0,0.,12.0,0.,12.0,0.,12.0,0.,12.0
1979-07-05 06:35:42.250 ,1,0,0.,12.0,0.,12.0,0.,12.0,0.,12.0
1979-07-05 06:35:54.250 ,1,0,0.,12.0,0.,12.0,0.,12.0,0.,12.0
1979-07-05 06:36:06.250 ,0,0,0.,12.0,0.,12.0,0.,12.0,0.,12.0
1979-07-05 06:36:18.250 ,0,0,0.,12.0,0.,12.0,0.,12.0,0.,12.0
1979-07-05 06:36:30.250 ,0,0,0.,12.0,0.,12.0,0.,12.0,0.,12.0
1979-07-05 06:36:42.250 ,0,0,0.,12.0,0.,12.0,0.,12.0,0.,12.0
1979-07-05 06:36:54.250 ,0,0,0.,12.0,0.,12.0,0.,12.0,0.,12.0
1979-07-05 06:37:06.250 ,0,0,0.,12.0,0.,12.0,0.,12.0,0.,12.0
1979-07-05 06:37:18.250 ,0,0,0.,12.0,0.,12.0,0.,12.0,0.,12.0
1979-07-05 06:37:30.250 ,0,0,0.,12.0,0.,12.0,0.,12.0,0.,12.0
1979-07-05 06:37:42.250 ,1,0,0.,12.0,0.,12.0,0.,12.0,0.,12.0
1979-07-05 06:37:54.250 ,1,0,0.,12.0,0.,12.0,0.,12.0,0.,12.0
1979-07-05 06:38:06.250 ,1,0,0.,12.0,0.,12.0,0.,12.0,0.,12.0
1979-07-05 06:38:18.250 ,1,0,0.,12.0,0.,12.0,0.,12.0,0.,12.0
1979-07-05 06:38:30.250 ,2,0,0.,12.0,0.,12.0,0.,12.0,0.,12.0
1979-07-05 06:38:42.250 ,2,0,0.,12.0,0.,12.0,0.,12.0,0.,12.0
1979-07-05 06:38:54.250 ,2,0,0.,12.0,0.,12.0,0.,12.0,0.,12.0
1979-07-05 06:39:06.250 ,2,0,0.,12.0,0.,12.0,0.,12.0,0.,12.0
1979-07-05 06:39:18.250 ,3,0,0.,12.0,0.,12.0,0.,12.0,0.,12.0
1979-07-05 06:39:30.250 ,3,0,0.,12.0,0.,12.0,0.,12.0,0.,12.0
1979-07-05 06:39:42.250 ,3,0,0.,12.0,0.,12.0,0.,12.0,0.,12.0
1979-07-05 06:39:54.250 ,3,0,0.,12.0,0.,12.0,0.,12.0,0.,12.0
1979-07-05 06:40:06.250 ,4,0,0.,12.0,0.,12.0,0.,12.0,0.,12.0
1979-07-05 06:40:18.250 ,4,0,0.,12.0,0.,12.0,0.,12.0,0.,12.0
1979-07-05 06:40:30.250 ,4,0,0.,12.0,0.,12.0,0.,12.0,0.,12.0
1979-07-05 06:40:42.250 ,4,0,0.,12.0,0.,12.0,0.,12.0,0.,12.0
1979-07-05 06:40:54.250 ,5,0,0.,12.0,0.,12.0,0.,12.0,0.,12.0
1979-07-05 06:41:06.250 ,5,0,0.,12.0,0.,12.0,0.,12.0,0.,12.0
1979-07-05 06:41:18.250 ,5,0,0.,12.0,0.,12.0,0.,12.0,0.,12.0
1979-07-05 06:41:30.250 ,5,0,0.,12.0,0.,12.0,0.,12.0,0.,12.0
1979-07-05 06:41:42.250 ,6,0,0.,12.0,0.,12.0,0.,12.0,0.,12.0
1979-07-05 06:41:54.250 ,6,0,0.,12.0,0.,12.0,0.,12.0,0.,12.0
1979-07-05 06:42:06.250 ,6,0,0.,12.0,0.,12.0,0.,12.0,0.,12.0
1979-07-05 06:42:18.250 ,6,0,0.,12.0,0.,12.0,0.,12.0,0.,12.0
1979-07-05 06:42:30.250 ,7,0,0.,12.0,0.,12.0,0.,12.0,0.,12.0
1979-07-05 06:42:42.250 ,7,0,0.,12.0,0.,12.0,0.,12.0,0.,12.0
1979-07-05 06:42:54.250 ,7,0,0.,12.0,0.,12.0,0.,12.0,0.,12.0
1979-07-05 06:43:06.250 ,7,0,0.,12.0,0.,12.0,0.,12.0,0.,12.0
1979-07-05 06:43:18.250 ,3,1,0.,12.0,0.,12.0,0.,12.0,0.,12.0
1979-07-05 06:43:30.250 ,3,1,0.,12.0,0.,12.0,0.,12.0,0.,12.0
1979-07-05 06:43:42.250 ,0,1,0.,12.0,0.,12.0,0.,12.0,0.,12.0
1979-07-05 06:43:54.250 ,0,1,0.,12.0,0.,12.0,0.,12.0,0.,12.0
1979-07-05 06:44:06.250 ,4,1,0.,12.0,0.,12.0,0.,12.0,0.,12.0
1979-07-05 06:44:18.250 ,4,1,0.,12.0,0.,12.0,0.,12.0,0.,12.0
1979-07-05 06:44:30.250 ,7,1,0.,12.0,0.,12.0,0.,12.0,0.,12.0
1979-07-05 06:44:42.250 ,7,1,0.,12.0,0.,12.0,0.,12.0,0.,12.0
1979-07-05 06:44:54.250 ,3,1,0.,12.0,0.,12.0,0.,12.0,0.,12.0
1979-07-05 06:45:06.250 ,3,1,0.,12.0,0.,12.0,0.,12.0,0.,12.0
1979-07-05 06:45:18.250 ,0,1,0.,12.0,0.,12.0,0.,12.0,0.,12.0
1979-07-05 06:45:30.250 ,0,1,0.,12.0,0.,12.0,0.,12.0,0.,12.0
1979-07-05 06:45:42.250 ,4,1,0.,12.0,0.,12.0,0.,12.0,0.,12.0
1979-07-05 06:45:54.250 ,4,1,0.,12.0,0.,12.0,0.,12.0,0.,12.0
1979-07-05 06:46:06.250 ,7,1,0.,12.0,0.,12.0,0.,12.0,0.,12.0
1979-07-05 06:46:18.250 ,7,1,0.,12.0,0.,12.0,0.,12.0,0.,12.0
1979-07-05 06:46:30.250 ,3,1,0.,12.0,0.,12.0,0.,12.0,0.,12.0
1979-07-05 06:46:42.250 ,3,1,0.,12.0,0.,12.0,0.,12.0,0.,12.0
1979-07-05 06:46:54.250 ,0,1,0.,12.0,0.,12.0,0.,12.0,0.,12.0
1979-07-05 06:47:06.250 ,0,1,0.,12.0,0.,12.0,0.,12.0,0.,12.0
1979-07-05 06:47:18.250 ,4,1,0.,12.0,0.,12.0,0.,12.0,0.,12.0
1979-07-05 06:47:30.250 ,4,1,0.,12.0,0.,12.0,0.,12.0,0.,12.0
1979-07-05 06:47:42.250 ,7,1,0.,12.0,0.,12.0,0.,12.0,0.,12.0
1979-07-05 06:47:54.250 ,7,1,0.,12.0,0.,12.0,0.,12.0,0.,12.0
1979-07-05 06:48:06.250 ,3,1,0.,12.0,0.,12.0,0.,12.0,0.,12.0
1979-07-05 06:48:18.250 ,3,1,0.,12.0,0.,12.0,0.,12.0,0.,12.0
1979-07-05 06:48:30.250 ,0,1,0.,12.0,0.,12.0,0.,12.0,0.,12.0
1979-07-05 06:48:42.250 ,0,1,0.,12.0,0.,12.0,0.,12.0,0.,12.0
1979-07-05 06:48:54.250 ,4,1,0.,12.0,0.,12.0,0.,12.0,0.,12.0
1979-07-05 06:49:06.250 ,4,1,0.,12.0,0.,12.0,0.,12.0,0.,12.0
1979-07-05 06:49:18.250 ,7,1,0.,12.0,0.,12.0,0.,12.0,0.,12.0
1979-07-05 06:49:30.250 ,7,1,0.,12.0,0.,12.0,0.,12.0,0.,12.0
1979-07-05 06:49:42.250 ,3,1,0.,12.0,0.,12.0,0.,12.0,0.,12.0
1979-07-05 06:49:54.250 ,3,1,0.,12.0,0.,12.0,0.,12.0,0.,12.0
1979-07-05 06:50:06.250 ,0,1,0.,12.0,0.,12.0,0.,12.0,0.,12.0
1979-07-05 06:50:18.250 ,0,1,0.,12.0,0.,12.0,0.,12.0,0.,12.0
1979-07-05 06:50:30.250 ,4,1,0.,12.0,0.,12.0,0.,12.0,0.,12.0
1979-07-05 06:50:42.250 ,4,1,0.,12.0,0.,12.0,0.,12.0,0.,12.0
1979-07-05 06:50:54.250 ,7,1,0.,12.0,0.,12.0,0.,12.0,0.,12.0
1979-07-05 06:51:06.250 ,7,1,0.,12.0,0.,12.0,0.,12.0,0.,12.0
1979-07-05 06:51:18.250 ,3,1,0.,12.0,0.,12.0,0.,12.0,0.,12.0
1979-07-05 06:51:30.250 ,3,1,0.,12.0,0.,12.0,0.,12.0,0.,12.0
1979-07-05 06:51:42.250 ,0,1,0.,12.0,0.,12.0,0.,12.0,0.,12.0
1979-07-05 06:51:54.250 ,0,1,0.,12.0,0.,12.0,0.,12.0,0.,12.0
1979-07-05 06:52:06.250 ,4,1,0.,12.0,0.,12.0,0.,12.0,0.,12.0
1979-07-05 06:52:18.250 ,4,1,0.,12.0,0.,12.0,0.,12.0,0.,12.0
1979-07-05 06:52:30.250 ,7,1,0.,12.0,0.,12.0,0.,12.0,0.,12.0
1979-07-05 06:52:42.250 ,7,1,0.,12.0,0.,12.0,0.,12.0,0.,12.0
1979-07-05 06:52:54.250 ,3,1,0.,12.0,0.,12.0,0.,12.0,0.,12.0
1979-07-05 06:53:06.250 ,3,1,0.,12.0,0.,12.0,0.,12.0,0.,12.0
1979-07-05 06:53:18.250 ,0,1,0.,12.0,0.,12.0,0.,12.0,0.,12.0
1979-07-05 06:53:30.250 ,0,1,0.,12.0,0.,12.0,0.,12.0,0.,12.0
1979-07-05 06:53:42.250 ,0,0,0.,12.0,0.,12.0,0.,12.0,0.,12.0
1979-07-05 06:53:54.250 ,0,0,0.,12.0,0.,12.0,0.,12.0,0.,12.0
1979-07-05 06:54:06.250 ,0,0,0.,12.0,0.,12.0,0.,12.0,0.,12.0
1979-07-05 06:54:18.250 ,0,0,0.,12.0,0.,12.0,0.,12.0,0.,12.0
1979-07-05 06:54:30.250 ,5,0,0.,12.0,0.,12.0,0.,12.0,0.,12.0
1979-07-05 06:54:42.250 ,5,0,0.,12.0,0.,12.0,0.,12.0,0.,12.0
1979-07-05 06:54:54.250 ,5,0,0.,12.0,0.,12.0,0.,12.0,0.,12.0
1979-07-05 06:55:06.250 ,5,0,0.,12.0,0.,12.0,0.,12.0,0.,12.0
1979-07-05 06:55:18.250 ,4,0,0.,12.0,0.,12.0,0.,12.0,0.,12.0
1979-07-05 06:55:30.250 ,4,0,0.,12.0,0.,12.0,0.,12.0,0.,12.0
1979-07-05 06:55:42.250 ,4,0,0.,12.0,0.,12.0,0.,12.0,0.,12.0
1979-07-05 06:55:54.250 ,4,0,0.,12.0,0.,12.0,0.,12.0,0.,12.0
1979-07-05 06:56:06.250 ,3,0,0.,12.0,0.,12.0,0.,12.0,0.,12.0
1979-07-05 06:56:18.250 ,3,0,0.,12.0,0.,12.0,0.,12.0,0.,12.0
1979-07-05 06:56:30.250 ,3,0,0.,12.0,0.,12.0,0.,12.0,0.,12.0
1979-07-05 06:56:42.250 ,3,0,0.,12.0,0.,12.0,0.,12.0,0.,12.0
1979-07-05 06:56:54.250 ,2,0,0.,12.0,0.,12.0,0.,12.0,0.,12.0
1979-07-05 06:57:06.250 ,2,0,0.,12.0,0.,12.0,0.,12.0,0.,12.0
1979-07-05 06:57:18.250 ,2,0,0.,12.0,0.,12.0,0.,12.0,0.,12.0
1979-07-05 06:57:30.250 ,2,0,0.,12.0,0.,12.0,0.,12.0,0.,12.0
1979-07-05 06:57:42.250 ,1,0,0.,12.0,0.,12.0,0.,12.0,0.,12.0
1979-07-05 06:57:54.250 ,1,0,0.,12.0,0.,12.0,0.,12.0,0.,12.0
1979-07-05 06:58:06.250 ,1,0,0.,12.0,0.,12.0,0.,12.0,0.,12.0
1979-07-05 06:58:18.250 ,1,0,0.,12.0,0.,12.0,0.,12.0,0.,12.0
1979-07-05 06:58:30.250 ,0,0,0.,12.0,0.,12.0,0.,12.0,0.,12.0
1979-07-05 06:58:42.250 ,0,0,0.,12.0,0.,12.0,0.,12.0,0.,12.0
1979-07-05 06:58:54.250 ,0,0,0.,12.0,0.,12.0,0.,12.0,0.,12.0
1979-07-05 06:59:06.250 ,0,0,0.,12.0,0.,12.0,0.,12.0,0.,12.0
1979-07-05 06:59:18.250 ,0,0,0.,12.0,0.,12.0,0.,12.0,0.,12.0
1979-07-05 06:59:30.250 ,0,0,0.,12.0,0.,12.0,0.,12.0,0.,12.0
1979-07-05 06:59:42.250 ,0,0,0.,12.0,0.,12.0,0.,12.0,0.,12.0
1979-07-05 06:59:54.250 ,0,0,0.,12.0,0.,12.0,0.,12.0,0.,12.0
1979-07-05 07:00:06.250 ,1,0,0.,12.0,0.,12.0,0.,12.0,0.,12.0
1979-07-05 07:00:18.250 ,1,0,0.,12.0,0.,12.0,0.,12.0,0.,12.0
1979-07-05 07:00:30.250 ,1,0,0.,12.0,0.,12.0,0.,12.0,0.,12.0
1979-07-05 07:00:42.250 ,1,0,0.,12.0,0.,12.0,0.,12.0,0.,12.0
1979-07-05 07:00:54.250 ,2,0,0.,12.0,0.,12.0,0.,12.0,0.,12.0
1979-07-05 07:01:06.250 ,2,0,0.,12.0,0.,12.0,0.,12.0,0.,12.0
1979-07-05 07:01:18.250 ,2,0,0.,12.0,0.,12.0,0.,12.0,0.,12.0
1979-07-05 07:01:30.250 ,2,0,0.,12.0,0.,12.0,0.,12.0,0.,12.0
1979-07-05 07:01:42.250 ,3,0,0.,12.0,0.,12.0,0.,12.0,0.,12.0
1979-07-05 07:01:54.250 ,3,0,0.,12.0,0.,12.0,0.,12.0,0.,12.0
1979-07-05 07:02:06.250 ,3,0,0.,12.0,0.,12.0,0.,12.0,0.,12.0
1979-07-05 07:02:18.250 ,3,0,0.,12.0,0.,12.0,0.,12.0,0.,12.0
1979-07-05 07:02:30.250 ,4,0,0.,12.0,0.,12.0,0.,12.0,0.,12.0
1979-07-05 07:02:42.250 ,4,0,0.,12.0,0.,12.0,0.,12.0,0.,12.0
1979-07-05 07:02:54.250 ,4,0,0.,12.0,0.,12.0,0.,12.0,0.,12.0
1979-07-05 07:03:06.250 ,4,0,0.,12.0,0.,12.0,0.,12.0,0.,12.0
1979-07-05 07:03:18.250 ,5,0,0.,12.0,0.,12.0,0.,12.0,0.,12.0
1979-07-05 07:03:30.250 ,5,0,0.,12.0,0.,12.0,0.,12.0,0.,12.0
1979-07-05 07:03:42.250 ,5,0,0.,12.0,0.,12.0,0.,12.0,0.,12.0
1979-07-05 07:03:54.250 ,5,0,0.,12.0,0.,12.0,0.,12.0,0.,12.0
1979-07-05 07:04:06.250 ,6,0,0.,12.0,0.,12.0,0.,12.0,0.,12.0
1979-07-05 07:04:18.250 ,6,0,0.,12.0,0.,12.0,0.,12.0,0.,12.0
1979-07-05 07:04:30.250 ,6,0,0.,12.0,0.,12.0,0.,12.0,0.,12.0
1979-07-05 07:04:42.250 ,6,0,0.,12.0,0.,12.0,0.,12.0,0.,12.0
1979-07-05 07:04:54.250 ,7,0,0.,12.0,0.,12.0,0.,12.0,0.,12.0
1979-07-05 07:05:06.250 ,7,0,0.,12.0,0.,12.0,0.,12.0,0.,12.0
1979-07-05 07:05:18.250 ,7,0,0.,12.0,0.,12.0,0.,12.0,0.,12.0
1979-07-05 07:05:30.250 ,7,0,0.,12.0,0.,12.0,0.,12.0,0.,12.0
1979-07-05 07:05:42.250 ,7,0,0.,12.0,0.,12.0,0.,12.0,0.,12.0
1979-07-05 07:05:54.250 ,7,0,0.,12.0,0.,12.0,0.,12.0,0.,12.0
1979-07-05 07:06:06.250 ,7,0,0.,12.0,0.,12.0,0.,12.0,0.,12.0
1979-07-05 07:06:18.250 ,7,0,0.,12.0,0.,12.0,0.,12.0,0.,12.0
1979-07-05 07:06:30.250 ,6,0,0.,12.0,0.,12.0,0.,12.0,0.,12.0
1979-07-05 07:06:42.250 ,6,0,0.,12.0,0.,12.0,0.,12.0,0.,12.0
1979-07-05 07:06:54.250 ,6,0,0.,12.0,0.,12.0,0.,12.0,0.,12.0
1979-07-05 07:07:06.250 ,6,0,0.,12.0,0.,12.0,0.,12.0,0.,12.0
1979-07-05 07:07:18.250 ,5,0,0.,12.0,0.,12.0,0.,12.0,0.,12.0
1979-07-05 07:07:30.250 ,5,0,0.,12.0,0.,12.0,0.,12.0,0.,12.0
1979-07-05 07:07:42.250 ,5,0,0.,12.0,0.,12.0,0.,12.0,0.,12.0
1979-07-05 07:07:54.250 ,5,0,0.,12.0,0.,12.0,0.,12.0,0.,12.0
1979-07-05 07:08:06.250 ,4,0,0.,12.0,0.,12.0,0.,12.0,0.,12.0
1979-07-05 07:08:18.250 ,4,0,0.,12.0,0.,12.0,0.,12.0,0.,12.0
1979-07-05 07:08:30.250 ,4,0,0.,12.0,0.,12.0,0.,12.0,0.,12.0
1979-07-05 07:08:42.250 ,4,0,0.,12.0,0.,12.0,0.,12.0,0.,12.0
1979-07-05 07:08:54.250 ,3,0,0.,12.0,0.,12.0,0.,12.0,0.,12.0
1979-07-05 07:09:06.250 ,3,0,0.,12.0,0.,12.0,0.,12.0,0.,12.0
1979-07-05 07:09:18.250 ,3,0,0.,12.0,0.,12.0,0.,12.0,0.,12.0
1979-07-05 07:09:30.250 ,3,0,0.,12.0,0.,12.0,0.,12.0,0.,12.0
1979-07-05 07:09:42.250 ,2,0,0.,12.0,0.,12.0,0.,12.0,0.,12.0
1979-07-05 07:09:54.250 ,2,0,0.,12.0,0.,12.0,0.,12.0,0.,12.0
1979-07-05 07:10:06.250 ,2,0,0.,12.0,0.,12.0,0.,12.0,0.,12.0
1979-07-05 07:10:18.250 ,2,0,0.,12.0,0.,12.0,0.,12.0,0.,12.0
1979-07-05 07:10:30.250 ,1,0,0.,12.0,0.,12.0,0.,12.0,0.,12.0
1979-07-05 07:10:42.250 ,1,0,0.,12.0,0.,12.0,0.,12.0,0.,12.0
1979-07-05 07:10:54.250 ,1,0,0.,12.0,0.,12.0,0.,12.0,0.,12.0
1979-07-05 07:11:06.250 ,1,0,0.,12.0,0.,12.0,0.,12.0,0.,12.0
1979-07-05 07:11:18.250 ,0,0,0.,12.0,0.,12.0,0.,12.0,0.,12.0
1979-07-05 07:11:30.250 ,0,0,0.,12.0,0.,12.0,0.,12.0,0.,12.0
1979-07-05 07:11:42.250 ,0,0,0.,12.0,0.,12.0,0.,12.0,0.,12.0
1979-07-05 07:11:54.250 ,0,0,0.,12.0,0.,12.0,0.,12.0,0.,12.0
1979-07-05 07:12:06.250 ,0,0,0.,12.0,0.,12.0,0.,12.0,0.,12.0
1979-07-05 07:12:18.250 ,0,0,0.,12.0,0.,12.0,0.,12.0,0.,12.0
1979-07-05 07:12:30.250 ,0,0,0.,12.0,0.,12.0,0.,12.0,0.,12.0
1979-07-05 07:12:42.250 ,0,0,0.,12.0,0.,12.0,0.,12.0,0.,12.0
1979-07-05 07:12:54.250 ,1,0,0.,12.0,0.,12.0,0.,12.0,0.,12.0
1979-07-05 07:13:06.250 ,1,0,0.,12.0,0.,12.0,0.,12.0,0.,12.0
1979-07-05 07:13:18.250 ,1,0,0.,12.0,0.,12.0,0.,12.0,0.,12.0
1979-07-05 07:13:30.250 ,1,0,0.,12.0,0.,12.0,0.,12.0,0.,12.0
1979-07-05 07:13:42.250 ,2,0,0.,12.0,0.,12.0,0.,12.0,0.,12.0
1979-07-05 07:13:54.250 ,2,0,0.,12.0,0.,12.0,0.,12.0,0.,12.0
1979-07-05 07:14:06.250 ,2,0,0.,12.0,0.,12.0,0.,12.0,0.,12.0
1979-07-05 07:14:18.250 ,2,0,0.,12.0,0.,12.0,0.,12.0,0.,12.0
1979-07-05 07:14:30.250 ,3,0,0.,12.0,0.,12.0,0.,12.0,0.,12.0
1979-07-05 07:14:42.250 ,3,0,0.,12.0,0.,12.0,0.,12.0,0.,12.0
1979-07-05 07:14:54.250 ,3,0,0.,12.0,0.,12.0,0.,12.0,0.,12.0
1979-07-05 07:15:06.250 ,3,0,0.,12.0,0.,12.0,0.,12.0,0.,12.0
1979-07-05 07:15:18.250 ,4,0,0.,12.0,0.,12.0,0.,12.0,0.,12.0
1979-07-05 07:15:30.250 ,4,0,0.,12.0,0.,12.0,0.,12.0,0.,12.0
1979-07-05 07:15:42.250 ,4,0,0.,12.0,0.,12.0,0.,12.0,0.,12.0
1979-07-05 07:15:54.250 ,4,0,0.,12.0,0.,12.0,0.,12.0,0.,12.0
1979-07-05 07:16:06.250 ,5,0,0.,12.0,0.,12.0,0.,12.0,0.,12.0
1979-07-05 07:16:18.250 ,5,0,0.,12.0,0.,12.0,0.,12.0,0.,12.0
1979-07-05 07:16:30.250 ,5,0,0.,12.0,0.,12.0,0.,12.0,0.,12.0
1979-07-05 07:16:42.250 ,5,0,0.,12.0,0.,12.0,0.,12.0,0.,12.0
1979-07-05 07:16:54.250 ,6,0,0.,12.0,0.,12.0,0.,12.0,0.,12.0
1979-07-05 07:17:06.250 ,6,0,0.,12.0,0.,12.0,0.,12.0,0.,12.0
1979-07-05 07:17:18.250 ,6,0,0.,12.0,0.,12.0,0.,12.0,0.,12.0
1979-07-05 07:17:30.250 ,6,0,0.,12.0,0.,12.0,0.,12.0,0.,12.0